This demonstration page uses our WeatherBlox Daily Observations layout. Learn more.

Left ArrowRight Arrow

53.62937, 11.41316

Hourly Observations for January 26, 2020

Temp ( °F °C ) Dew Point ( °F °C ) Humidity (%) Winds ( mph kmh ) Pressure ( in mb ) Visibility ( mi km ) Precip ( " mm )
6:50 am 06:50 Cloudy 32 0 30 -1 93 93 SW 6 9 30.06 1018 6 9 N/A
7:20 am 07:20 Cloudy 32 0 30 -1 93 93 SSW 7 11 30.06 1018 6 9 N/A
7:50 am 07:50 Cloudy 32 0 30 -1 93 93 SSW 7 11 30.06 1018 6 9 N/A
8:20 am 08:20 Cloudy 34 1 32 0 93 93 S 6 9 30.06 1018 5 8 N/A
8:50 am 08:50 Cloudy 34 1 32 0 93 93 S 7 11 30.06 1018 4 7 N/A
9:20 am 09:20 Cloudy 34 1 32 0 93 93 S 7 11 30.06 1018 4 7 N/A
9:50 am 09:50 Cloudy 34 1 32 0 93 93 S 6 9 30.06 1018 5 8 N/A
10:20 am 10:20 Cloudy 34 1 32 0 93 93 S 6 9 30.06 1018 6 9 N/A
10:50 am 10:50 Mostly Cloudy 36 2 32 0 87 87 S 6 9 30.06 1018 6 9 N/A
11:20 am 11:20 Partly Cloudy 36 2 32 0 87 87 S 6 9 30.06 1018 30 48 N/A
11:50 am 11:50 Mostly Cloudy 36 2 32 0 87 87 S 8 13 30.06 1018 30 48 N/A
12:20 pm 12:20 Mostly Cloudy 36 2 32 0 87 87 S 7 11 30.03 1017 30 48 N/A
12:50 pm 12:50 Mostly Cloudy 37 3 32 0 81 81 S 8 13 30.03 1017 30 48 N/A
1:20 pm 13:20 Mostly Cloudy 36 2 32 0 87 87 S 8 13 30.03 1017 30 48 N/A
1:50 pm 13:50 Mostly Cloudy 36 2 32 0 87 87 S 9 15 30.03 1017 30 48 N/A
2:20 pm 14:20 Cloudy 36 2 32 0 87 87 S 8 13 30.01 1016 30 48 N/A
2:50 pm 14:50 Cloudy 34 1 32 0 93 93 S 8 13 30.01 1016 30 48 N/A
3:20 pm 15:20 Cloudy 34 1 32 0 93 93 SSE 9 15 30.01 1016 6 9 N/A
3:50 pm 15:50 Cloudy 34 1 32 0 93 93 SSE 7 11 30.01 1016 4 6 N/A
4:20 pm 16:20 Cloudy 34 1 32 0 93 93 SSE 8 13 29.98 1015 4 7 N/A
4:50 pm 16:50 Cloudy 36 2 34 1 93 93 SSE 8 13 29.98 1015 4 7 N/A
5:20 pm 17:20 Cloudy 36 2 34 1 93 93 SSE 7 11 29.98 1015 4 6 N/A
5:50 pm 17:50 Cloudy with Mist and Fog 36 2 34 1 93 93 S 9 15 29.98 1015 3 5 N/A
6:20 pm 18:20 Cloudy with Mist and Fog 36 2 34 1 93 93 S 8 13 29.95 1014 3 5 N/A
6:50 pm 18:50 Cloudy with Mist and Fog 36 2 34 1 93 93 S 8 13 29.95 1014 3 5 N/A
7:20 pm 19:20 Cloudy with Mist and Fog 36 2 34 1 93 93 S 8 13 29.95 1014 3 5 N/A
7:50 pm 19:50 Cloudy with Mist and Fog 36 2 34 1 93 93 S 7 11 29.95 1014 3 5 N/A

Powered by AerisWeather